TimeMDT,TemperatureF,Dew PointF,Humidity,Sea Level PressureIn,VisibilityMPH,Wind Direction,Wind SpeedMPH,Gust SpeedMPH,PrecipitationIn,Events,Conditions,WindDirDegrees,DateUTC
12:14 AM,12.2,8.6,85,30.12,7.0,NE,3.5,-,N/A,Snow,Light Snow,40,2013-04-10 06:14:00
12:35 AM,12.2,8.6,85,30.11,1.8,East,3.5,-,N/A,Snow,Light Snow,80,2013-04-10 06:35:00
12:55 AM,12.2,8.6,85,30.11,5.0,ENE,5.8,-,N/A,Snow,Light Snow,60,2013-04-10 06:55:00
1:15 AM,12.2,6.8,79,30.12,7.0,Calm,Calm,-,N/A,Snow,Light Snow,0,2013-04-10 07:15:00
1:35 AM,10.4,6.8,85,30.11,4.0,Calm,Calm,-,N/A,Snow,Light Snow,0,2013-04-10 07:35:00
1:55 AM,10.4,6.8,85,30.10,5.0,Calm,Calm,-,N/A,Snow,Light Snow,0,2013-04-10 07:55:00
2:15 AM,8.6,5.0,85,30.10,7.0,Calm,Calm,-,N/A,Snow,Light Snow,0,2013-04-10 08:15:00
2:35 AM,10.4,5.0,79,30.09,10.0,Calm,Calm,-,N/A,,Scattered Clouds,0,2013-04-10 08:35:00
2:55 AM,10.4,5.0,79,30.08,5.0,Calm,Calm,-,N/A,Snow,Light Snow,0,2013-04-10 08:55:00
3:15 AM,10.4,5.0,79,30.07,7.0,SE,4.6,-,N/A,Snow,Light Snow,140,2013-04-10 09:15:00
3:34 AM,10.4,5.0,79,30.06,7.0,SE,5.8,-,N/A,Snow,Light Snow,140,2013-04-10 09:34:00
3:55 AM,10.4,5.0,79,30.04,10.0,SSE,3.5,-,N/A,Snow,Light Snow,150,2013-04-10 09:55:00
4:15 AM,10.4,5.0,79,30.05,10.0,SE,5.8,-,N/A,,Clear,140,2013-04-10 10:15:00
4:35 AM,10.4,5.0,79,30.06,10.0,SE,8.1,-,N/A,,Clear,130,2013-04-10 10:35:00
4:55 AM,10.4,5.0,79,30.06,7.0,South,4.6,-,N/A,Snow,Light Snow,170,2013-04-10 10:55:00
5:15 AM,10.4,6.8,85,30.06,10.0,South,6.9,-,N/A,Snow,Light Snow,180,2013-04-10 11:15:00
5:35 AM,10.4,5.0,79,30.06,10.0,SE,5.8,-,N/A,,Scattered Clouds,140,2013-04-10 11:35:00
5:55 AM,10.4,5.0,79,30.07,10.0,SE,6.9,-,N/A,,Clear,130,2013-04-10 11:55:00
6:52 AM,8.6,3.2,79,30.06,40.0,ESE,5.8,-,N/A,,Scattered Clouds,110,2013-04-10 12:52:00
7:47 AM,10.4,5.0,79,30.07,20.0,Variable,3.5,-,N/A,,Mostly Cloudy,0,2013-04-10 13:47:00
8:47 AM,14.0,6.8,73,30.08,40.0,South,6.9,-,N/A,,Mostly Cloudy,180,2013-04-10 14:47:00
9:50 AM,15.8,6.8,68,30.06,40.0,SE,4.6,-,N/A,,Mostly Cloudy,140,2013-04-10 15:50:00
10:46 AM,19.4,8.6,63,30.05,40.0,SE,6.9,-,N/A,,Mostly Cloudy,140,2013-04-10 16:46:00
1:46 PM,39.2,12.2,33,30.00,20.0,Calm,Calm,-,N/A,,Mostly Cloudy,0,2013-04-10 19:46:00
2:59 PM,26.6,14.0,59,29.98,20.0,Calm,Calm,-,N/A,,Overcast,0,2013-04-10 20:59:00
3:50 PM,26.6,15.8,64,29.97,20.0,ESE,8.1,-,N/A,,Overcast,110,2013-04-10 21:50:00
4:45 PM,26.6,15.8,64,29.95,20.0,Variable,4.6,-,N/A,,Overcast,0,2013-04-10 22:45:00
5:47 PM,26.6,15.8,64,29.94,20.0,East,5.8,-,N/A,,Overcast,80,2013-04-10 23:47:00
6:47 PM,24.8,15.8,69,29.93,20.0,East,6.9,-,N/A,,Overcast,100,2013-04-11 00:47:00
7:49 PM,24.8,15.8,69,29.92,20.0,ESE,6.9,-,N/A,,Scattered Clouds,120,2013-04-11 01:49:00
8:47 PM,23.0,15.8,74,29.91,20.0,ESE,5.8,-,N/A,,Scattered Clouds,120,2013-04-11 02:47:00
9:48 PM,23.0,15.8,74,29.90,25.0,SSE,4.6,-,N/A,,Clear,160,2013-04-11 03:48:00
11:15 PM,24.8,15.8,69,29.86,10.0,South,5.8,-,N/A,,Clear,190,2013-04-11 05:15:00
11:34 PM,24.8,17.6,74,29.84,10.0,South,6.9,-,N/A,,Clear,190,2013-04-11 05:34:00
11:55 PM,24.8,17.6,74,29.83,10.0,South,5.8,-,N/A,,Clear,180,2013-04-11 05:55:00